Regional Weather Roundup
Issued by NWS Jackson, KY

Home | Current Version | Previous Version | Text Only | Print | Product List | Glossary Off
Versions: 1 2 3 4 5 6 7 8 9 10 11 12 13 14 15 16 17 18 19 20 21 22 23 24 25 26 27 28 29 30 31 32 33 34 35 36 37 38 39 40 41 42 43 44 45 46 47 48 49 50

619
ASUS43 KJKL 130610
RWRJKL

EAST KENTUCKY HOURLY WEATHER ROUNDUP
NATIONAL WEATHER SERVICE JACKSON KY
100 AM EST SAT FEB 13 2016

NOTE: "FAIR" INDICATES FEW OR NO CLOUDS BELOW 12,000 FEET WITH
NO SIGNIFICANT WEATHER AND/OR OBSTRUCTIONS TO VISIBILITY.

* THESE REPORTS ARE NOT UNDER NWS QUALITY CONTROL AND MAY NOT
  REPORT WEATHER SUCH AS PRECIPITATION AND FOG.

KYZ079-080-083-085-087-088-110-112-115-119-120-130700
...EASTERN KENTUCKY...

CITY           SKY/WX    TMP DP  RH WIND       PRES   REMARKS
JACKSON        LGT SNOW  20  14  77 VRB7G18   30.24R WCI  11
6HR MIN TEMP:  20; 6HR MAX TEMP:  29; 6HR PCP:  0.01;

LONDON         CLOUDY    24  11  57 NW9       30.27R WCI  14
6HR MIN TEMP:  24; 6HR MAX TEMP:  30; 6HR PCP: TRACE;

SOMERSET*      CLOUDY    27  12  54 W10       30.33R WCI  17
MONTICELLO*    CLOUDY    25  13  60 NW15G22   30.34R WCI  13
6HR MIN TEMP:  25; 6HR MAX TEMP:  31; 6HR PCP: TRACE;

WILLIAMSBURG*  CLOUDY    25  12  58 NW15G24   30.28R WCI  12
MIDDLESBORO*   CLOUDY    28  17  65 W10G20    30.26R WCI  18
6HR MIN TEMP:  28; 6HR MAX TEMP:  32;

HARLAN APT*    CLOUDY    27  16  63 W16G23    30.22R WCI  14
HAZARD APT*    CLOUDY    19  12  73 NW9       30.24R WCI   9
BLACK MTN*       N/A     12  12 100 NW5         N/A  WCI   4
BIG SANDY*     CLOUDY    24  13  63 NW13G21   30.22R WCI  12
6HR MIN TEMP:  24; 6HR MAX TEMP:  31;

MOREHEAD APT*  MOCLDY    21   7  53 W12G17    30.29R WCI   9
$$

KYZ035-036-041-042-044-050-067-078-099-130700
...CENTRAL KENTUCKY...

CITY           SKY/WX    TMP DP  RH WIND       PRES   REMARKS
MT STERLING*   MOCLDY    21  10  63 NW5       30.30S WCI  15
DANVILLE*      CLOUDY    23  12  63 NW8       30.32S WCI  14
RICHMOND*      CLOUDY    23   9  54 NW12G20   30.30R WCI  12
LEXINGTON      CLOUDY    23   9  55 NW12      30.30R WCI  12
6HR MIN TEMP:  23; 6HR MAX TEMP:  29; 6HR PCP: TRACE;

FRANKFORT      LGT SNOW  21  14  74 NW13G22   30.33R WCI   9
6HR MIN TEMP:  24; 6HR MAX TEMP:  29; 6HR PCP: TRACE;

$$

KYZ091>093-OHZ055-061-077-WVZ005-015-034-035-042-130700
...SOUTHERN OHIO/WEST VIRGINIA...

CITY           SKY/WX    TMP DP  RH WIND       PRES   REMARKS
COVINGTON      PTCLDY    19   6  57 NW16      30.31R WCI   4
COLUMBUS       PTCLDY    14   3  61 NW14      30.24R WCI  -1
DAYTON         PTCLDY    13   6  74 NW14      30.28R WCI  -2
WILMINGTON     CLEAR     14   6  70 NW16      30.26R WCI  -2
HUNTINGTON     CLOUDY    21  10  62 N16G24    30.26R WCI   7
CHARLESTON     FLURRIES  21   5  50 NW21G31   30.21R WCI   5
PINEVILLE*     LGT SNOW  22  17  79 MISG      30.16R VSB 1
BECKLEY        LGT SNOW  18  13  80 W13G24    30.02R WCI   5
$$

VAZ002-007-008-TNZ017-027-036-066-071-130700
...SOUTHWEST VIRGINIA/EAST TENNESSEE...

CITY           SKY/WX    TMP DP  RH WIND       PRES   REMARKS
BRISTOL        LGT SNOW  27  23  85 W16G23    30.16R FOG     WCI  15
KNOXVILLE      CLOUDY    30  19  63 W13       30.26S WCI  20
OAK RIDGE      CLOUDY    32  18  56 NW6       30.28S WCI  26
CROSSVILLE     CLOUDY    26  13  57 NW10G23   30.24S WCI  16
NASHVILLE      PTCLDY    27  12  53 N13G22    30.40R WCI  16
$$

...KEY TO REMARKS...
VSB - VISIBILITY IN MILES
WCI - WIND CHILL INDEX
HX  - HEAT INDEX

$$




USA.gov is the U.S. government's official web portal to all federal, state and local government web resources and services.